Tracking 20942 objects as of 15-Jul-2020
HD Live streaming from Space Station
objects crossing your sky now

ARIANE 2 DEB

Track ARIANE 2 DEB now!


NORAD ID: 33555
Int'l Code: 1989-006AX
Perigee: 795.9 km
Apogee: 35,832.9 km
Inclination: 8.1 °
Period: 643.3 minutes
Semi major axis: 24685 km
RCS: 0.01 m2 (small)
Launch date: January 27, 1989
Source: France (FR)
Launch site: FRENCH GUIANA (FRGUI)

Note: This is SATELLITE DEBRIS
aabbcc
Your satellite tracking list
Your tracking list is empty




NASA's NSSDC Master Catalog

Two Line Element Set (TLE):
1 33555U 89006AX  19113.68614999 -.00000143  00000-0  13900-2 0  9995
2 33555   8.0733 246.8892 7096702 160.8062 356.0488  2.23842630106716
Source of the keplerian elements: AFSPC